ECHOSTAR 4

导读

ECHOSTAR 4是美国EchoStar公司运营的一颗地球静止轨道通信卫星,于1998年5月7日发射入轨,属于EchoStar卫星星座的一员。该卫星主要为北美地区提供直接到户的卫星电视广播服务,依托高功率转发器技术保障信号稳定传输,支撑主流卫星电视平台运营,是EchoStar星座早期推动卫星电视普及的重要空间节点,在卫星通信发展历程中发挥了作用。

Basic Information
目录编号:
25331
目录名称:
ECHOSTAR 4
国际标识:
1998-028A
轨道中心:
EARTH
卫星名称:
ECHOSTAR 4
卫星全名:
--
卫星状态:
在轨 (已飞行10265 天)
发射日期:
1998-05-07 UTC
国别 :
美国 (US)
星等 :
--
Orbit Information
数据来源 国际轨道数据 AOE轨道数据
星历时间 2026-06-13T17:06:10+0800
1天前
查看轨道信息
2026-06-14T17:00:00+0800
2小时前
查看轨道信息
半长轴 42539.453km 42539.224km
偏心率 0.0012717 0.0012685
轨道倾角 11.729° 11.730°
近地点辐角 305.578° 305.537°
升交点赤经 31.233° 31.228°
平近点角 355.693° 350.442°
近地点 36107.218km 36107.125km
远地点 36215.414km 36215.049km
周期 1455.283分钟 1455.272分钟
每日圈数 0.989498 0.989506
Detailed Information
使用方式:
暂无
2D Orbit Map
3D Orbit Map
Orbit Altitude Analysis Chart
Orbit Inclination Analysis Chart
Orbit Comprehensive Analysis Chart
View Comprehensive Chart